TimeEDT,TemperatureF,Dew PointF,Humidity,Sea Level PressureIn,VisibilityMPH,Wind Direction,Wind SpeedMPH,Gust SpeedMPH,PrecipitationIn,Events,Conditions,WindDirDegrees,DateUTC
12:17 AM,50.2,12.6,22,29.94,10.0,SE,5.8,-,N/A,,Clear,130,2013-04-07 04:17:00
12:37 AM,50.2,12.4,22,29.93,10.0,SE,6.9,-,N/A,,Clear,130,2013-04-07 04:37:00
12:56 AM,50.0,12.7,23,29.92,10.0,SE,6.9,-,N/A,,Clear,140,2013-04-07 04:56:00
1:17 AM,50.0,12.9,23,29.91,10.0,SE,6.9,-,N/A,,Clear,130,2013-04-07 05:17:00
1:37 AM,50.0,12.9,23,29.90,10.0,SE,5.8,-,N/A,,Clear,130,2013-04-07 05:37:00
1:57 AM,50.2,12.7,22,29.89,10.0,SE,5.8,-,N/A,,Clear,130,2013-04-07 05:57:00
2:17 AM,50.7,13.1,22,29.88,10.0,SE,6.9,-,N/A,,Clear,140,2013-04-07 06:17:00
2:37 AM,50.7,14.4,24,29.88,10.0,SSE,5.8,-,N/A,,Clear,150,2013-04-07 06:37:00
2:57 AM,52.7,16.3,24,29.87,10.0,SSE,8.1,-,N/A,,Clear,150,2013-04-07 06:57:00
3:17 AM,53.6,17.6,24,29.86,10.0,SSE,9.2,-,N/A,,Clear,160,2013-04-07 07:17:00
3:37 AM,53.8,18.7,25,29.85,10.0,South,6.9,-,N/A,,Scattered Clouds,170,2013-04-07 07:37:00
3:56 AM,54.1,19.9,26,29.85,10.0,South,8.1,16.1,N/A,,Scattered Clouds,170,2013-04-07 07:56:00
4:17 AM,54.5,21.0,27,29.85,10.0,South,8.1,-,N/A,,Clear,180,2013-04-07 08:17:00
4:37 AM,54.7,22.5,29,29.84,10.0,South,6.9,-,N/A,,Scattered Clouds,180,2013-04-07 08:37:00
4:56 AM,54.3,23.4,30,29.83,10.0,SSE,5.8,-,N/A,,Clear,160,2013-04-07 08:56:00
5:17 AM,54.5,25.0,32,29.83,10.0,SSE,6.9,-,N/A,,Mostly Cloudy,150,2013-04-07 09:17:00
5:37 AM,55.6,26.4,33,29.82,10.0,South,8.1,-,N/A,,Scattered Clouds,170,2013-04-07 09:37:00
5:57 AM,55.4,27.3,34,29.82,10.0,South,5.8,-,N/A,,Clear,180,2013-04-07 09:57:00
6:17 AM,56.7,28.4,34,29.82,10.0,South,9.2,19.6,N/A,,Clear,190,2013-04-07 10:17:00
6:37 AM,57.4,29.3,34,29.81,10.0,SSW,9.2,18.4,N/A,,Scattered Clouds,200,2013-04-07 10:37:00
6:57 AM,57.2,29.8,35,29.81,10.0,South,11.5,26.5,N/A,,Scattered Clouds,190,2013-04-07 10:57:00
7:17 AM,57.4,30.2,36,29.81,10.0,SSW,8.1,20.7,N/A,,Mostly Cloudy,200,2013-04-07 11:17:00
7:36 AM,57.4,30.7,36,29.81,10.0,SSW,11.5,20.7,N/A,,Scattered Clouds,200,2013-04-07 11:36:00
7:57 AM,58.1,31.1,36,29.82,10.0,SSW,10.4,23.0,N/A,,Mostly Cloudy,200,2013-04-07 11:57:00
8:17 AM,58.1,31.8,37,29.82,10.0,SSW,12.7,27.6,N/A,,Overcast,210,2013-04-07 12:17:00
8:37 AM,58.3,32.0,37,29.82,10.0,SSW,10.4,26.5,N/A,,Scattered Clouds,200,2013-04-07 12:37:00
8:57 AM,59.7,32.2,35,29.82,10.0,SSW,11.5,23.0,N/A,,Scattered Clouds,210,2013-04-07 12:57:00
9:17 AM,60.6,32.5,35,29.81,10.0,SSW,13.8,25.3,N/A,,Overcast,210,2013-04-07 13:17:00
9:36 AM,59.9,34.0,38,29.81,10.0,SW,15.0,31.1,N/A,,Mostly Cloudy,230,2013-04-07 13:36:00
9:57 AM,59.9,34.7,39,29.81,10.0,WSW,11.5,23.0,N/A,,Mostly Cloudy,240,2013-04-07 13:57:00
10:17 AM,61.3,35.4,38,29.81,10.0,SW,16.1,23.0,N/A,,Scattered Clouds,230,2013-04-07 14:17:00
10:36 AM,61.7,36.3,39,29.82,10.0,SW,17.3,25.3,N/A,,Clear,230,2013-04-07 14:36:00
10:57 AM,61.9,37.8,41,29.83,10.0,WSW,10.4,29.9,N/A,,Clear,240,2013-04-07 14:57:00
11:17 AM,63.5,38.1,39,29.83,10.0,WSW,16.1,29.9,N/A,,Clear,240,2013-04-07 15:17:00
11:37 AM,64.2,39.0,39,29.83,10.0,WSW,11.5,26.5,N/A,,Clear,240,2013-04-07 15:37:00
11:57 AM,65.5,38.5,37,29.83,10.0,SW,16.1,28.8,N/A,,Clear,220,2013-04-07 15:57:00
12:17 PM,64.8,37.8,37,29.84,10.0,SW,10.4,26.5,N/A,,Clear,230,2013-04-07 16:17:00
12:36 PM,66.2,37.6,35,29.83,10.0,WSW,19.6,26.5,N/A,,Clear,250,2013-04-07 16:36:00
12:57 PM,66.6,37.2,34,29.84,10.0,WSW,17.3,24.2,N/A,,Unknown,240,2013-04-07 16:57:00
1:17 PM,67.3,37.4,33,29.84,10.0,WSW,16.1,31.1,N/A,,Unknown,250,2013-04-07 17:17:00
1:36 PM,67.5,37.4,33,29.84,10.0,WSW,19.6,27.6,N/A,,Scattered Clouds,250,2013-04-07 17:36:00
1:57 PM,68.5,37.2,32,29.84,10.0,WSW,21.9,27.6,N/A,,Scattered Clouds,250,2013-04-07 17:57:00
2:17 PM,68.0,36.7,32,29.84,10.0,WSW,20.7,27.6,N/A,,Scattered Clouds,240,2013-04-07 18:17:00
2:36 PM,69.1,36.5,30,29.84,10.0,WSW,12.7,28.8,N/A,,Scattered Clouds,250,2013-04-07 18:36:00
2:57 PM,69.3,37.0,31,29.85,10.0,WSW,21.9,31.1,N/A,,Mostly Cloudy,250,2013-04-07 18:57:00
3:17 PM,68.5,35.8,30,29.85,10.0,WSW,17.3,29.9,N/A,,Overcast,250,2013-04-07 19:17:00
3:37 PM,68.9,36.0,30,29.86,10.0,West,18.4,27.6,N/A,,Overcast,280,2013-04-07 19:37:00
3:57 PM,61.9,42.1,48,29.87,10.0,NNW,13.8,18.4,N/A,,Overcast,330,2013-04-07 19:57:00
4:17 PM,62.8,42.1,47,29.88,10.0,NW,12.7,19.6,N/A,,Mostly Cloudy,320,2013-04-07 20:17:00
4:36 PM,61.0,42.1,50,29.88,10.0,NW,12.7,18.4,N/A,,Scattered Clouds,320,2013-04-07 20:36:00
4:57 PM,60.6,41.4,49,29.90,10.0,NW,9.2,19.6,N/A,,Clear,320,2013-04-07 20:57:00
5:17 PM,60.4,41.0,49,29.91,10.0,NW,11.5,16.1,N/A,,Clear,320,2013-04-07 21:17:00
5:36 PM,59.4,39.9,49,29.92,10.0,WNW,9.2,19.6,N/A,,Clear,300,2013-04-07 21:36:00
5:57 PM,58.8,39.9,50,29.93,10.0,NW,11.5,17.3,N/A,,Clear,320,2013-04-07 21:57:00
6:17 PM,57.2,39.2,51,29.93,10.0,NNW,12.7,24.2,N/A,,Clear,330,2013-04-07 22:17:00
6:36 PM,55.9,39.0,53,29.94,10.0,NW,9.2,16.1,N/A,,Clear,320,2013-04-07 22:36:00
6:57 PM,54.5,37.9,54,29.95,10.0,NW,12.7,19.6,N/A,,Clear,320,2013-04-07 22:57:00
7:17 PM,52.7,37.0,55,29.96,10.0,NW,9.2,16.1,N/A,,Clear,320,2013-04-07 23:17:00
7:37 PM,51.8,36.5,56,29.97,10.0,NNW,6.9,-,N/A,,Clear,330,2013-04-07 23:37:00
7:57 PM,51.3,35.8,55,29.97,10.0,NW,4.6,-,N/A,,Clear,310,2013-04-07 23:57:00
8:17 PM,50.9,35.6,56,29.98,10.0,NW,4.6,-,N/A,,Clear,310,2013-04-08 00:17:00
8:36 PM,50.0,35.6,58,29.98,10.0,NW,3.5,-,N/A,,Clear,310,2013-04-08 00:36:00
8:57 PM,49.5,35.6,59,29.99,10.0,Calm,Calm,-,N/A,,Clear,0,2013-04-08 00:57:00
9:17 PM,48.4,35.1,60,30.00,10.0,North,4.6,-,N/A,,Clear,350,2013-04-08 01:17:00
9:37 PM,47.5,35.4,63,30.00,10.0,Calm,Calm,-,N/A,,Clear,0,2013-04-08 01:37:00
9:57 PM,46.6,35.4,65,30.01,10.0,Calm,Calm,-,N/A,,Clear,0,2013-04-08 01:57:00
10:17 PM,46.0,34.9,65,30.01,10.0,Calm,Calm,-,N/A,,Clear,0,2013-04-08 02:17:00
10:37 PM,45.0,34.7,67,30.02,10.0,Calm,Calm,-,N/A,,Clear,0,2013-04-08 02:37:00
10:57 PM,44.8,34.7,68,30.01,10.0,NE,3.5,-,N/A,,Clear,40,2013-04-08 02:57:00
11:17 PM,44.1,34.7,70,30.01,10.0,NE,4.6,-,N/A,,Clear,40,2013-04-08 03:17:00
11:36 PM,44.8,34.7,68,30.02,10.0,NE,4.6,-,N/A,,Clear,50,2013-04-08 03:36:00
11:57 PM,43.2,34.9,73,30.02,10.0,ENE,6.9,-,N/A,,Clear,60,2013-04-08 03:57:00